#timestamp,LO_Frequency,Hit 
1505444415.7,286046988.5,N
1505444435.5,286046987.4,N
1505444455.4,286046987.9,N
1505444475.2,286046989.0,N
1505444495.0,286046992.6,N
1505444495.9,286046992.6,N
1505444515.8,286046991.1,N
1505444535.6,286046996.4,N
1505444555.4,286046999.1,N
1505444575.3,286046999.4,N
1505444595.1,286046996.0,N
1505444596.0,286046996.0,N
1505444615.8,286046996.4,N
1505444635.7,286046995.4,N
1505444655.5,286046998.8,N
1505444675.3,286046995.5,N
1505444695.2,286046991.6,N
1505444715.9,286046990.9,N
1505444735.7,286047000.9,N
1505444755.6,286047002.3,N
1505444775.4,286046993.6,N
1505444795.2,286046992.6,N
1505444815.0,286046988.8,N
1505444816.0,286046988.8,N
1505444835.8,286046989.3,N
1505444855.6,286046996.6,N
1505444875.4,286046998.4,N
1505444895.3,286047000.4,N
1505444915.1,286046999.6,N
1505444935.8,286046997.5,N
1505444955.7,286046997.2,N
1505444975.5,286046994.1,N
1505444995.3,286046997.5,N
1505445015.2,286047004.3,N
1505445035.9,286047007.9,N
1505445055.7,286047014.4,P
1505445075.6,286047018.8,N
1505445095.4,286047008.8,N
1505445115.2,286047005.2,N
1505445135.1,286047006.2,N
1505445136.0,286047006.2,N
1505445155.8,286047008.5,N
1505445175.6,286047017.2,N
1505445195.5,286047010.8,N
1505445215.3,286047006.7,N
1505445235.1,286047014.1,N
1505445255.9,286047017.6,N
1505445275.7,286047023.4,P
1505445295.5,286047011.4,N
1505445315.4,286047016.4,N
1505445335.2,286047016.5,P
1505445355.0,286046999.5,N
1505445355.9,286046999.5,N
1505445375.8,286046997.8,N
1505445395.6,286046994.4,N
1505445415.4,286046992.8,N
1505445435.3,286046990.9,N
1505445455.1,286046993.1,N
1505445456.0,286046993.1,N
1505445475.8,286046989.5,N
1505445495.7,286046989.7,N
1505445515.5,286046983.7,N
1505445535.3,286046979.6,N
1505445555.1,286046974.7,N
1505445575.9,286046976.9,N
1505445595.7,286046974.7,N
1505445615.5,286046981.9,N
1505445635.4,286046979.9,N
1505445655.2,286046978.3,N
1505445675.0,286046977.0,N
1505445675.9,286046977.0,N
1505445695.8,286046976.5,N
1505445715.6,286046984.1,N
1505445735.4,286046979.4,N
1505445755.3,286046982.9,N
1505445775.1,286046984.4,N
1505445776.0,286046984.4,N
1505445795.8,286046982.2,N
1505445815.7,286046983.0,N
1505445835.5,286046981.9,N
1505445855.3,286046981.6,N
1505445875.2,286046977.6,P
1505445895.9,286046992.6,N
1505445915.7,286046994.0,N
1505445935.6,286046999.4,N
1505445955.4,286047005.6,N
1505445975.2,286047012.1,N
1505445995.0,286047005.8,N
1505445996.0,286047005.8,N
1505446015.8,286047002.2,N
1505446035.6,286047003.8,N
1505446055.4,286047002.5,N
1505446075.3,286047013.9,N
1505446095.1,286047029.9,P
1505446115.8,286047034.8,N
1505446135.7,286047035.4,N
1505446155.5,286047033.9,N
1505446175.4,286047041.1,P
1505446195.2,286047013.5,N
1505446215.0,286047005.3,N
1505446215.9,286047005.3,N
1505446235.7,286047004.4,N
1505446255.6,286047000.0,N
1505446275.4,286047000.3,N
1505446295.2,286046999.1,N
1505446315.1,286046998.7,N
1505446316.0,286046998.7,N
1505446335.8,286046993.3,N
1505446355.6,286046992.7,N
1505446375.5,286046996.0,N
1505446395.4,286046990.6,N
1505446415.2,286046989.0,N
1505446435.3,286046985.2,N
1505446455.2,286046982.9,N
1505446475.9,286046978.8,N
1505446495.7,286046974.5,N
1505446515.6,286046974.0,N
1505446535.4,286046982.2,N
1505446555.2,286046985.5,N
1505446575.1,286046991.5,N
1505446576.0,286046991.5,N
1505446595.8,286046988.9,N
1505446615.6,286046988.4,N
1505446635.4,286046990.8,N
1505446655.3,286046993.2,N
1505446675.1,286046993.9,N
1505446695.8,286046991.5,N
1505446715.7,286046983.3,N
1505446735.5,286046974.4,N
1505446755.3,286046975.6,N
1505446775.2,286046985.1,N
1505446795.9,286046986.4,N
1505446815.7,286046980.4,N
1505446835.6,286046974.7,P
1505446855.4,286046986.0,N
1505446875.2,286046983.2,N
1505446895.1,286046982.7,P
1505446896.0,286046982.7,P
1505446915.8,286047005.5,P
1505446935.6,286047013.7,N
1505446955.5,286047016.0,N
1505446975.3,286047016.7,N
1505446995.1,286047012.2,N
1505447015.9,286047005.6,N
1505447035.7,286047002.8,N
1505447055.5,286047004.9,N
1505447075.4,286047007.8,N
1505447095.2,286047011.8,N
1505447115.0,286047005.8,N
1505447115.9,286047005.8,N
1505447135.8,286047003.4,N
1505447155.6,286047006.3,N
1505447175.4,286047006.7,N
1505447195.3,286047003.1,N
1505447215.1,286047004.1,N
1505447216.0,286047004.1,N
1505447235.8,286047007.0,N
1505447255.6,286047008.8,N
1505447275.5,286047001.3,N
1505447295.3,286047001.8,N
1505447315.1,286047006.0,N
1505447335.9,286047008.5,N
1505447355.7,286047007.0,N
1505447375.5,286047005.9,N
1505447395.4,286047005.1,N
1505447415.2,286047011.5,N
1505447435.0,286047015.3,N
1505447435.9,286047015.3,N
1505447455.8,286047013.3,P
1505447475.6,286047004.3,N
1505447495.4,286046997.3,N
1505447515.3,286046993.3,N
1505447535.1,286046991.4,N
1505447536.0,286046991.4,N
1505447555.8,286046994.6,N
1505447575.7,286046990.6,N
1505447595.5,286046991.0,N
1505447615.3,286046989.3,N
1505447635.2,286046985.4,N
1505447655.9,286046984.0,N
1505447675.7,286046985.4,N
1505447695.5,286046986.7,N
1505447715.4,286046984.2,N
1505447735.2,286046988.4,N
1505447755.0,286046992.5,N
1505447755.9,286046992.5,N
1505447775.8,286046989.4,N
1505447795.6,286046988.7,N
1505447815.4,286046990.6,N
1505447835.3,286046990.8,N
1505447855.1,286046993.2,N
1505447875.8,286046991.9,N
1505447895.7,286046988.3,N
1505447915.5,286046984.7,N
1505447935.3,286046991.3,N
1505447955.2,286046991.6,N
1505447975.9,286046989.8,N
1505447995.7,286046989.8,N
